Year,Month,Day,Hour,Minute,Value (Times are PST for temperature in C)
2013,06,15,00,00,10.90
2013,06,15,00,01,10.90
2013,06,15,00,02,10.90
2013,06,15,00,03,10.90
2013,06,15,00,04,10.90
2013,06,15,00,05,10.90
2013,06,15,00,06,10.90
2013,06,15,00,07,10.90
2013,06,15,00,08,10.90
2013,06,15,00,09,10.90
2013,06,15,00,10,10.90
2013,06,15,00,11,10.90
2013,06,15,00,12,10.90
2013,06,15,00,13,10.90
2013,06,15,00,16,10.90
2013,06,15,00,17,10.90
2013,06,15,00,18,10.90
2013,06,15,00,19,10.90
2013,06,15,00,20,10.90
2013,06,15,00,21,10.90
2013,06,15,00,22,11.00
2013,06,15,00,23,11.10
2013,06,15,00,24,11.10
2013,06,15,00,25,11.10
2013,06,15,00,26,11.10
2013,06,15,00,27,11.10
2013,06,15,00,28,11.10
2013,06,15,00,29,11.10
2013,06,15,00,30,11.10
2013,06,15,00,31,11.10
2013,06,15,00,32,11.10
2013,06,15,00,33,11.10
2013,06,15,00,34,11.00
2013,06,15,00,35,10.90
2013,06,15,00,36,10.90
2013,06,15,00,37,10.90
2013,06,15,00,38,10.90
2013,06,15,00,39,10.90
2013,06,15,00,40,10.90
2013,06,15,00,41,10.90
2013,06,15,00,42,10.90
2013,06,15,00,43,11.10
2013,06,15,00,44,11.10
2013,06,15,00,45,11.10
2013,06,15,00,46,11.10
2013,06,15,00,47,11.10
2013,06,15,00,48,11.10
2013,06,15,00,49,11.00
2013,06,15,00,50,10.90
2013,06,15,00,51,10.90
2013,06,15,00,52,10.90
2013,06,15,00,53,10.90
2013,06,15,00,54,10.90
2013,06,15,00,55,10.90
2013,06,15,00,56,10.90
2013,06,15,00,57,10.90
2013,06,15,00,58,10.90
2013,06,15,00,59,10.90
2013,06,15,01,00,10.90
2013,06,15,01,01,10.90
2013,06,15,01,02,10.90
2013,06,15,01,03,10.90
2013,06,15,01,04,10.90
2013,06,15,01,05,10.90
2013,06,15,01,06,10.90
2013,06,15,01,07,10.90
2013,06,15,01,08,10.90
2013,06,15,01,09,10.90
2013,06,15,01,10,10.90
2013,06,15,01,11,10.90
2013,06,15,01,12,10.90
2013,06,15,01,13,10.90
2013,06,15,01,14,10.90
2013,06,15,01,15,10.90
2013,06,15,01,16,10.90
2013,06,15,01,17,10.90
2013,06,15,01,18,10.90
2013,06,15,01,19,10.90
2013,06,15,01,20,10.90
2013,06,15,01,21,10.90
2013,06,15,01,22,10.90
2013,06,15,01,23,10.90
2013,06,15,01,24,10.90
2013,06,15,01,25,10.80
2013,06,15,01,26,10.80
2013,06,15,01,27,10.80
2013,06,15,01,28,10.70
2013,06,15,01,29,10.70
2013,06,15,01,30,10.70
2013,06,15,01,31,10.70
2013,06,15,01,32,10.60
2013,06,15,01,33,10.60
2013,06,15,01,34,10.60
2013,06,15,01,35,10.60
2013,06,15,01,36,10.60
2013,06,15,01,37,10.60
2013,06,15,01,38,10.60
2013,06,15,01,39,10.60
2013,06,15,01,40,10.60
2013,06,15,01,41,10.60
2013,06,15,01,42,10.60
2013,06,15,01,43,10.50
2013,06,15,01,44,10.40
2013,06,15,01,45,10.40
2013,06,15,01,46,10.40
2013,06,15,01,47,10.40
2013,06,15,01,48,10.40
2013,06,15,01,49,10.40
2013,06,15,01,50,10.40
2013,06,15,01,51,10.40
2013,06,15,01,52,10.40
2013,06,15,01,53,10.40
2013,06,15,01,54,10.30
2013,06,15,01,55,10.30
2013,06,15,01,56,10.30
2013,06,15,01,57,10.30
2013,06,15,01,58,10.30
2013,06,15,01,59,10.20
2013,06,15,02,00,10.20
2013,06,15,02,01,10.20
2013,06,15,02,02,10.20
2013,06,15,02,03,10.20
2013,06,15,02,04,10.20
2013,06,15,02,05,10.20
2013,06,15,02,06,10.10
2013,06,15,02,07,10.10
2013,06,15,02,08,10.10
2013,06,15,02,09,10.10
2013,06,15,02,10,10.10
2013,06,15,02,11,10.10
2013,06,15,02,12,10.10
2013,06,15,02,13,10.10
2013,06,15,02,14,10.10
2013,06,15,02,15,10.10
2013,06,15,02,16,10.00
2013,06,15,02,17,9.90
2013,06,15,02,18,9.90
2013,06,15,02,19,9.90
2013,06,15,02,20,9.90
2013,06,15,02,21,9.90
2013,06,15,02,22,9.90
2013,06,15,02,23,9.90
2013,06,15,02,24,9.90
2013,06,15,02,25,9.90
2013,06,15,02,26,9.90
2013,06,15,02,27,9.90
2013,06,15,02,28,9.90
2013,06,15,02,29,9.90
2013,06,15,02,30,9.90
2013,06,15,02,31,9.90
2013,06,15,02,32,9.80
2013,06,15,02,33,9.80
2013,06,15,02,34,9.80
2013,06,15,02,35,9.80
2013,06,15,02,36,9.90
2013,06,15,02,37,9.90
2013,06,15,02,38,9.80
2013,06,15,02,39,9.80
2013,06,15,02,40,9.80
2013,06,15,02,41,9.80
2013,06,15,02,42,9.80
2013,06,15,02,43,9.80
2013,06,15,02,44,9.80
2013,06,15,02,45,9.80
2013,06,15,02,46,9.80
2013,06,15,02,47,9.80
2013,06,15,02,48,9.80
2013,06,15,02,49,9.80
2013,06,15,02,50,9.80
2013,06,15,02,51,9.70
2013,06,15,02,52,9.70
2013,06,15,02,53,9.80
2013,06,15,02,54,9.80
2013,06,15,02,55,9.70
2013,06,15,02,56,9.70
2013,06,15,02,57,9.70
2013,06,15,02,58,9.70
2013,06,15,02,59,9.70
2013,06,15,03,00,9.70
2013,06,15,03,01,9.70
2013,06,15,03,02,9.70
2013,06,15,03,03,9.70
2013,06,15,03,04,9.70
2013,06,15,03,05,9.70
2013,06,15,03,06,9.70
2013,06,15,03,07,9.70
2013,06,15,03,08,9.70
2013,06,15,03,09,9.70
2013,06,15,03,10,9.70
2013,06,15,03,11,9.70
2013,06,15,03,12,9.70
2013,06,15,03,13,9.70
2013,06,15,03,14,9.70
2013,06,15,03,15,9.70
2013,06,15,03,16,9.70
2013,06,15,03,17,9.60
2013,06,15,03,18,9.60
2013,06,15,03,19,9.60
2013,06,15,03,20,9.60
2013,06,15,03,21,9.60
2013,06,15,03,22,9.60
2013,06,15,03,23,9.60
2013,06,15,03,24,9.60
2013,06,15,03,25,9.60
2013,06,15,03,26,9.60
2013,06,15,03,27,9.60
2013,06,15,03,28,9.60
2013,06,15,03,29,9.50
2013,06,15,03,30,9.50
2013,06,15,03,31,9.50
2013,06,15,03,32,9.50
2013,06,15,03,33,9.50
2013,06,15,03,34,9.50
2013,06,15,03,35,9.50
2013,06,15,03,36,9.40
2013,06,15,03,37,9.40
2013,06,15,03,38,9.40
2013,06,15,03,39,9.40
2013,06,15,03,40,9.40
2013,06,15,03,41,9.40
2013,06,15,03,42,9.40
2013,06,15,03,43,9.40
2013,06,15,03,44,9.40
2013,06,15,03,45,9.40
2013,06,15,03,46,9.40
2013,06,15,03,47,9.40
2013,06,15,03,48,9.40
2013,06,15,03,49,9.40
2013,06,15,03,50,9.40
2013,06,15,03,51,9.40
2013,06,15,03,52,9.40
2013,06,15,03,53,9.40
2013,06,15,03,54,9.40
2013,06,15,03,55,9.40
2013,06,15,03,56,9.40
2013,06,15,03,57,9.40
2013,06,15,03,58,9.40
2013,06,15,03,59,9.40
2013,06,15,04,00,9.40
2013,06,15,04,01,9.40
2013,06,15,04,02,9.40
2013,06,15,04,03,9.40
2013,06,15,04,04,9.40
2013,06,15,04,05,9.40
2013,06,15,04,06,9.40
2013,06,15,04,07,9.40
2013,06,15,04,08,9.40
2013,06,15,04,09,9.40
2013,06,15,04,10,9.40
2013,06,15,04,11,9.40
2013,06,15,04,12,9.50
2013,06,15,04,13,9.50
2013,06,15,04,14,9.50
2013,06,15,04,15,9.50
2013,06,15,04,16,9.60
2013,06,15,04,17,9.60
2013,06,15,04,18,9.60
2013,06,15,04,19,9.60
2013,06,15,04,20,9.60
2013,06,15,04,21,9.60
2013,06,15,04,22,9.60
2013,06,15,04,23,9.60
2013,06,15,04,24,9.60
2013,06,15,04,25,9.60
2013,06,15,04,26,9.60
2013,06,15,04,27,9.60
2013,06,15,04,28,9.60
2013,06,15,04,29,9.60
2013,06,15,04,30,9.60
2013,06,15,04,31,9.60
2013,06,15,04,32,9.60
2013,06,15,04,33,9.50
2013,06,15,04,34,9.50
2013,06,15,04,35,9.50
2013,06,15,04,36,9.50
2013,06,15,04,37,9.50
2013,06,15,04,38,9.40
2013,06,15,04,39,9.40
2013,06,15,04,40,9.40
2013,06,15,04,41,9.40
2013,06,15,04,42,9.40
2013,06,15,04,43,9.30
2013,06,15,04,44,9.30
2013,06,15,04,45,9.30
2013,06,15,04,46,9.30
2013,06,15,04,47,9.30
2013,06,15,04,48,9.30
2013,06,15,04,49,9.30
2013,06,15,04,50,9.30
2013,06,15,04,51,9.30
2013,06,15,04,52,9.30
2013,06,15,04,53,9.30
2013,06,15,04,54,9.30
2013,06,15,04,55,9.30
2013,06,15,04,56,9.30
2013,06,15,04,57,9.30
2013,06,15,04,58,9.20
2013,06,15,04,59,9.20
2013,06,15,05,00,9.20
2013,06,15,05,01,9.20
2013,06,15,05,02,9.20
2013,06,15,05,03,9.20
2013,06,15,05,04,9.20
2013,06,15,05,05,9.20
2013,06,15,05,06,9.20
2013,06,15,05,07,9.20
2013,06,15,05,08,9.20
2013,06,15,05,09,9.20
2013,06,15,05,10,9.20
2013,06,15,05,11,9.20
2013,06,15,05,12,9.20
2013,06,15,05,13,9.20
2013,06,15,05,14,9.20
2013,06,15,05,15,9.20
2013,06,15,05,16,9.10
2013,06,15,05,17,9.10
2013,06,15,05,18,9.10
2013,06,15,05,19,9.10
2013,06,15,05,20,9.10
2013,06,15,05,21,9.10
2013,06,15,05,22,9.10
2013,06,15,05,23,9.10
2013,06,15,05,24,9.10
2013,06,15,05,25,9.00
2013,06,15,05,26,9.00
2013,06,15,05,27,9.00
2013,06,15,05,28,9.00
2013,06,15,05,29,9.00
2013,06,15,05,30,8.90
2013,06,15,05,31,8.90
2013,06,15,05,32,8.90
2013,06,15,05,33,8.90
2013,06,15,05,34,8.90
2013,06,15,05,35,8.90
2013,06,15,05,36,8.80
2013,06,15,05,37,8.80
2013,06,15,05,38,8.80
2013,06,15,05,39,8.80
2013,06,15,05,40,8.80
2013,06,15,05,41,8.80
2013,06,15,05,42,8.80
2013,06,15,05,43,8.80
2013,06,15,05,44,8.80
2013,06,15,05,45,8.80
2013,06,15,05,46,8.80
2013,06,15,05,47,8.90
2013,06,15,05,48,8.90
2013,06,15,05,49,8.90
2013,06,15,05,50,8.90
2013,06,15,05,51,8.90
2013,06,15,05,52,9.00
2013,06,15,05,53,9.00
2013,06,15,05,54,9.00
2013,06,15,05,55,9.00
2013,06,15,05,56,9.00
2013,06,15,05,57,9.00
2013,06,15,05,58,9.00
2013,06,15,05,59,9.00
2013,06,15,06,00,9.00
2013,06,15,06,01,9.10
2013,06,15,06,02,9.10
2013,06,15,06,03,9.20
2013,06,15,06,04,9.20
2013,06,15,06,05,9.20
2013,06,15,06,06,9.20
2013,06,15,06,07,9.20
2013,06,15,06,08,9.20
2013,06,15,06,09,9.20
2013,06,15,06,10,9.20
2013,06,15,06,11,9.30
2013,06,15,06,12,9.30
2013,06,15,06,13,9.40
2013,06,15,06,14,9.40
2013,06,15,06,15,9.40
2013,06,15,06,16,9.50
2013,06,15,06,17,9.50
2013,06,15,06,18,9.60
2013,06,15,06,19,9.60
2013,06,15,06,20,9.70
2013,06,15,06,21,9.70
2013,06,15,06,22,9.70
2013,06,15,06,23,9.70
2013,06,15,06,24,9.70
2013,06,15,06,25,9.80
2013,06,15,06,26,9.80
2013,06,15,06,27,9.90
2013,06,15,06,28,9.90
2013,06,15,06,29,9.90
2013,06,15,06,30,10.00
2013,06,15,06,31,10.10
2013,06,15,06,32,10.10
2013,06,15,06,33,10.20
2013,06,15,06,34,10.20
2013,06,15,06,35,10.30
2013,06,15,06,36,10.40
2013,06,15,06,37,10.40
2013,06,15,06,38,10.60
2013,06,15,06,39,10.60
2013,06,15,06,40,10.70
2013,06,15,06,41,10.80
2013,06,15,06,42,10.90
2013,06,15,06,43,11.00
2013,06,15,06,44,11.10
2013,06,15,06,45,11.20
2013,06,15,06,46,11.30
2013,06,15,06,47,11.40
2013,06,15,06,48,11.60
2013,06,15,06,49,11.60
2013,06,15,06,50,11.70
2013,06,15,06,51,11.80
2013,06,15,06,52,11.80
2013,06,15,06,53,11.90
2013,06,15,06,54,11.90
2013,06,15,06,55,12.00
2013,06,15,06,56,12.10
2013,06,15,06,57,12.10
2013,06,15,06,58,12.10
2013,06,15,06,59,12.20
2013,06,15,07,00,12.30
2013,06,15,07,01,12.30
2013,06,15,07,02,12.40
2013,06,15,07,03,12.40
2013,06,15,07,04,12.50
2013,06,15,07,05,12.50
2013,06,15,07,06,12.60
2013,06,15,07,07,12.60
2013,06,15,07,08,12.70
2013,06,15,07,09,12.80
2013,06,15,07,10,12.80
2013,06,15,07,11,12.90
2013,06,15,07,12,12.90
2013,06,15,07,13,13.00
2013,06,15,07,14,13.10
2013,06,15,07,15,13.20
2013,06,15,07,16,13.30
2013,06,15,07,17,13.30
2013,06,15,07,18,13.40
2013,06,15,07,19,13.50
2013,06,15,07,20,13.50
2013,06,15,07,21,13.60
2013,06,15,07,22,13.60
2013,06,15,07,23,13.70
2013,06,15,07,24,13.70
2013,06,15,07,25,13.80
2013,06,15,07,26,13.80
2013,06,15,07,27,13.90
2013,06,15,07,28,14.00
2013,06,15,07,29,14.00
2013,06,15,07,30,14.10
2013,06,15,07,31,14.20
2013,06,15,07,32,14.20
2013,06,15,07,33,14.30
2013,06,15,07,34,14.40
2013,06,15,07,35,14.40
2013,06,15,07,36,14.50
2013,06,15,07,37,14.50
2013,06,15,07,38,14.60
2013,06,15,07,39,14.60
2013,06,15,07,40,14.60
2013,06,15,07,41,14.70
2013,06,15,07,42,14.70
2013,06,15,07,43,14.70
2013,06,15,07,44,14.70
2013,06,15,07,45,14.70
2013,06,15,07,46,14.70
2013,06,15,07,47,14.70
2013,06,15,07,48,14.70
2013,06,15,07,49,14.70
2013,06,15,07,50,14.80
2013,06,15,07,51,14.80
2013,06,15,07,52,14.80
2013,06,15,07,53,14.80
2013,06,15,07,54,14.80
2013,06,15,07,55,14.80
2013,06,15,07,56,14.80
2013,06,15,07,57,14.80
2013,06,15,07,58,14.80
2013,06,15,07,59,14.80
2013,06,15,08,00,14.90
2013,06,15,08,01,14.90
2013,06,15,08,02,14.90
2013,06,15,08,03,15.00
2013,06,15,08,04,15.00
2013,06,15,08,05,15.10
2013,06,15,08,06,15.10
2013,06,15,08,07,15.20
2013,06,15,08,08,15.20
2013,06,15,08,09,15.30
2013,06,15,08,10,15.30
2013,06,15,08,11,15.30
2013,06,15,08,12,15.40
2013,06,15,08,13,15.40
2013,06,15,08,14,15.40
2013,06,15,08,15,15.40
2013,06,15,08,16,15.40
2013,06,15,08,17,15.50
2013,06,15,08,18,15.50
2013,06,15,08,19,15.50
2013,06,15,08,20,15.50
2013,06,15,08,21,15.50
2013,06,15,08,22,15.50
2013,06,15,08,23,15.60
2013,06,15,08,24,15.60
2013,06,15,08,25,15.60
2013,06,15,08,26,15.60
2013,06,15,08,27,15.60
2013,06,15,08,28,15.60
2013,06,15,08,29,15.70
2013,06,15,08,30,15.70
2013,06,15,08,31,15.70
2013,06,15,08,32,15.80
2013,06,15,08,33,15.80
2013,06,15,08,34,15.80
2013,06,15,08,35,15.90
2013,06,15,08,36,15.90
2013,06,15,08,37,16.10
2013,06,15,08,38,16.10
2013,06,15,08,39,16.10
2013,06,15,08,40,16.10
2013,06,15,08,41,16.20
2013,06,15,08,42,16.30
2013,06,15,08,43,16.30
2013,06,15,08,44,16.40
2013,06,15,08,45,16.40
2013,06,15,08,46,16.50
2013,06,15,08,47,16.60
2013,06,15,08,48,16.60
2013,06,15,08,49,16.60
2013,06,15,08,50,16.60
2013,06,15,08,51,16.60
2013,06,15,08,52,16.60
2013,06,15,08,53,16.60
2013,06,15,08,54,16.50
2013,06,15,08,55,16.40
2013,06,15,08,56,16.40
2013,06,15,08,57,16.40
2013,06,15,08,58,16.40
2013,06,15,08,59,16.40
2013,06,15,09,00,16.40
2013,06,15,09,01,16.40
2013,06,15,09,02,16.40
2013,06,15,09,03,16.50
2013,06,15,09,04,16.60
2013,06,15,09,05,16.70
2013,06,15,09,06,16.70
2013,06,15,09,07,16.80
2013,06,15,09,08,16.80
2013,06,15,09,09,16.90
2013,06,15,09,10,16.90
2013,06,15,09,11,17.00
2013,06,15,09,12,17.00
2013,06,15,09,13,17.10
2013,06,15,09,14,17.10
2013,06,15,09,15,17.10
2013,06,15,09,16,17.10
2013,06,15,09,17,17.10
2013,06,15,09,18,17.10
2013,06,15,09,19,17.00
2013,06,15,09,20,17.00
2013,06,15,09,21,17.10
2013,06,15,09,22,17.10
2013,06,15,09,23,17.10
2013,06,15,09,24,17.20
2013,06,15,09,25,17.30
2013,06,15,09,26,17.30
2013,06,15,09,27,17.30
2013,06,15,09,28,17.30
2013,06,15,09,29,17.30
2013,06,15,09,30,17.40
2013,06,15,09,31,17.40
2013,06,15,09,32,17.50
2013,06,15,09,33,17.50
2013,06,15,09,34,17.50
2013,06,15,09,35,17.50
2013,06,15,09,36,17.60
2013,06,15,09,37,17.60
2013,06,15,09,38,17.70
2013,06,15,09,39,17.60
2013,06,15,09,40,17.50
2013,06,15,09,41,17.40
2013,06,15,09,42,17.30
2013,06,15,09,43,17.30
2013,06,15,09,44,17.30
2013,06,15,09,45,17.30
2013,06,15,09,46,17.30
2013,06,15,09,47,17.20
2013,06,15,09,48,17.20
2013,06,15,09,49,17.20
2013,06,15,09,50,17.20
2013,06,15,09,51,17.20
2013,06,15,09,52,17.30
2013,06,15,09,53,17.30
2013,06,15,09,54,17.30
2013,06,15,09,55,17.40
2013,06,15,09,56,17.50
2013,06,15,09,57,17.50
2013,06,15,09,58,17.60
2013,06,15,09,59,17.70
2013,06,15,10,00,17.80
2013,06,15,10,01,18.00
2013,06,15,10,02,18.10
2013,06,15,10,03,18.20
2013,06,15,10,04,18.20
2013,06,15,10,05,18.20
2013,06,15,10,06,18.20
2013,06,15,10,07,18.20
2013,06,15,10,08,18.20
2013,06,15,10,09,18.10
2013,06,15,10,10,18.10
2013,06,15,10,11,18.20
2013,06,15,10,12,18.20
2013,06,15,10,13,18.10
2013,06,15,10,14,18.10
2013,06,15,10,15,18.20
2013,06,15,10,16,18.20
2013,06,15,10,17,18.20
2013,06,15,10,18,18.30
2013,06,15,10,19,18.30
2013,06,15,10,20,18.30
2013,06,15,10,21,18.30
2013,06,15,10,22,18.30
2013,06,15,10,23,18.30
2013,06,15,10,24,18.30
2013,06,15,10,25,18.40
2013,06,15,10,26,18.50
2013,06,15,10,27,18.60
2013,06,15,10,28,18.70
2013,06,15,10,29,18.70
2013,06,15,10,30,18.80
2013,06,15,10,31,18.80
2013,06,15,10,32,18.90
2013,06,15,10,33,18.90
2013,06,15,10,34,18.90
2013,06,15,10,35,19.00
2013,06,15,10,36,19.10
2013,06,15,10,37,19.10
2013,06,15,10,38,19.10
2013,06,15,10,39,19.10
2013,06,15,10,40,19.10
2013,06,15,10,41,19.10
2013,06,15,10,42,19.10
2013,06,15,10,43,19.10
2013,06,15,10,44,19.10
2013,06,15,10,45,19.20
2013,06,15,10,46,19.30
2013,06,15,10,47,19.30
2013,06,15,10,48,19.30
2013,06,15,10,49,19.20
2013,06,15,10,50,19.20
2013,06,15,10,51,19.20
2013,06,15,10,52,19.20
2013,06,15,10,53,19.30
2013,06,15,10,54,19.30
2013,06,15,10,55,19.30
2013,06,15,10,56,19.30
2013,06,15,10,57,19.30
2013,06,15,10,58,19.30
2013,06,15,10,59,19.40
2013,06,15,11,00,19.50
2013,06,15,11,01,19.50
2013,06,15,11,02,19.50
2013,06,15,11,03,19.60
2013,06,15,11,04,19.60
2013,06,15,11,05,19.80
2013,06,15,11,06,19.90
2013,06,15,11,07,19.90
2013,06,15,11,08,20.00
2013,06,15,11,09,20.10
2013,06,15,11,10,20.10
2013,06,15,11,11,20.20
2013,06,15,11,12,20.20
2013,06,15,11,13,20.10
2013,06,15,11,14,19.90
2013,06,15,11,15,19.90
2013,06,15,11,16,19.90
2013,06,15,11,17,19.80
2013,06,15,11,18,19.70
2013,06,15,11,19,19.70
2013,06,15,11,20,19.80
2013,06,15,11,21,19.80
2013,06,15,11,22,19.90
2013,06,15,11,23,19.90
2013,06,15,11,24,19.90
2013,06,15,11,25,19.90
2013,06,15,11,26,20.00
2013,06,15,11,27,20.10
2013,06,15,11,28,20.10
2013,06,15,11,29,20.10
2013,06,15,11,30,20.10
2013,06,15,11,31,20.00
2013,06,15,11,32,19.90
2013,06,15,11,33,20.00
2013,06,15,11,34,20.10
2013,06,15,11,35,20.20
2013,06,15,11,36,20.20
2013,06,15,11,37,20.30
2013,06,15,11,38,20.30
2013,06,15,11,39,20.40
2013,06,15,11,40,20.40
2013,06,15,11,41,20.50
2013,06,15,11,42,20.60
2013,06,15,11,43,20.60
2013,06,15,11,44,20.50
2013,06,15,11,45,20.50
2013,06,15,11,46,20.50
2013,06,15,11,47,20.60
2013,06,15,11,48,20.60
2013,06,15,11,49,20.60
2013,06,15,11,50,20.50
2013,06,15,11,51,20.40
2013,06,15,11,52,20.40
2013,06,15,11,53,20.40
2013,06,15,11,54,20.40
2013,06,15,11,55,20.40
2013,06,15,11,56,20.50
2013,06,15,11,57,20.50
2013,06,15,11,58,20.60
2013,06,15,11,59,20.60
2013,06,15,12,00,20.70
2013,06,15,12,01,20.70
2013,06,15,12,02,20.80
2013,06,15,12,03,20.90
2013,06,15,12,04,21.00
2013,06,15,12,05,20.90
2013,06,15,12,06,20.90
2013,06,15,12,07,20.90
2013,06,15,12,08,21.00
2013,06,15,12,09,21.00
2013,06,15,12,10,20.80
2013,06,15,12,11,20.70
2013,06,15,12,12,20.70
2013,06,15,12,13,20.70
2013,06,15,12,14,20.70
2013,06,15,12,15,20.80
2013,06,15,12,16,20.80
2013,06,15,12,17,20.80
2013,06,15,12,18,20.70
2013,06,15,12,19,20.60
2013,06,15,12,20,20.60
2013,06,15,12,21,20.50
2013,06,15,12,22,20.50
2013,06,15,12,23,20.50
2013,06,15,12,24,20.60
2013,06,15,12,25,20.60
2013,06,15,12,26,20.60
2013,06,15,12,27,20.70
2013,06,15,12,28,20.80
2013,06,15,12,29,20.80
2013,06,15,12,30,20.90
2013,06,15,12,31,21.00
2013,06,15,12,32,21.10
2013,06,15,12,33,21.20
2013,06,15,12,34,21.30
2013,06,15,12,35,21.30
2013,06,15,12,36,21.40
2013,06,15,12,37,21.40
2013,06,15,12,38,21.40
2013,06,15,12,39,21.30
2013,06,15,12,40,21.10
2013,06,15,12,41,21.00
2013,06,15,12,42,21.00
2013,06,15,12,43,21.10
2013,06,15,12,44,21.10
2013,06,15,12,45,21.20
2013,06,15,12,46,21.30
2013,06,15,12,47,21.30
2013,06,15,12,48,21.20
2013,06,15,12,49,21.20
2013,06,15,12,50,21.20
2013,06,15,12,51,21.10
2013,06,15,12,52,20.90
2013,06,15,12,53,20.90
2013,06,15,12,54,20.90
2013,06,15,12,55,20.90
2013,06,15,12,56,21.00
2013,06,15,12,57,21.10
2013,06,15,12,58,21.20
2013,06,15,12,59,21.30
2013,06,15,13,00,21.40
2013,06,15,13,01,21.50
2013,06,15,13,02,21.60
2013,06,15,13,03,21.60
2013,06,15,13,04,21.60
2013,06,15,13,05,21.60
2013,06,15,13,06,21.60
2013,06,15,13,07,21.70
2013,06,15,13,08,21.80
2013,06,15,13,09,21.80
2013,06,15,13,10,21.80
2013,06,15,13,11,21.60
2013,06,15,13,12,21.60
2013,06,15,13,13,21.60
2013,06,15,13,14,21.60
2013,06,15,13,15,21.40
2013,06,15,13,16,21.20
2013,06,15,13,17,21.10
2013,06,15,13,18,21.00
2013,06,15,13,19,21.00
2013,06,15,13,20,21.10
2013,06,15,13,21,21.20
2013,06,15,13,22,21.20
2013,06,15,13,23,21.10
2013,06,15,13,24,21.00
2013,06,15,13,25,21.00
2013,06,15,13,26,20.90
2013,06,15,13,27,20.80
2013,06,15,13,28,20.80
2013,06,15,13,29,20.90
2013,06,15,13,30,20.90
2013,06,15,13,31,20.90
2013,06,15,13,32,20.80
2013,06,15,13,33,20.80
2013,06,15,13,34,20.90
2013,06,15,13,35,21.00
2013,06,15,13,36,21.00
2013,06,15,13,37,21.00
2013,06,15,13,38,20.90
2013,06,15,13,39,20.70
2013,06,15,13,40,20.50
2013,06,15,13,41,20.30
2013,06,15,13,42,20.20
2013,06,15,13,43,20.20
2013,06,15,13,44,20.20
2013,06,15,13,45,20.20
2013,06,15,13,46,20.20
2013,06,15,13,47,20.20
2013,06,15,13,48,20.30
2013,06,15,13,49,20.40
2013,06,15,13,50,20.50
2013,06,15,13,51,20.60
2013,06,15,13,52,20.70
2013,06,15,13,53,20.70
2013,06,15,13,54,20.70
2013,06,15,13,55,20.70
2013,06,15,13,56,20.80
2013,06,15,13,57,20.80
2013,06,15,13,58,20.80
2013,06,15,13,59,20.80
2013,06,15,14,00,20.80
2013,06,15,14,01,20.70
2013,06,15,14,02,20.80
2013,06,15,14,03,20.80
2013,06,15,14,04,20.80
2013,06,15,14,05,20.80
2013,06,15,14,06,20.80
2013,06,15,14,07,20.80
2013,06,15,14,08,20.80
2013,06,15,14,09,20.80
2013,06,15,14,10,21.00
2013,06,15,14,11,21.00
2013,06,15,14,12,20.90
2013,06,15,14,13,20.90
2013,06,15,14,14,20.90
2013,06,15,14,15,20.80
2013,06,15,14,16,20.80
2013,06,15,14,17,20.70
2013,06,15,14,18,20.80
2013,06,15,14,19,20.80
2013,06,15,14,20,20.80
2013,06,15,14,21,20.90
2013,06,15,14,22,20.70
2013,06,15,14,23,20.70
2013,06,15,14,24,20.70
2013,06,15,14,25,20.70
2013,06,15,14,26,20.80
2013,06,15,14,27,20.80
2013,06,15,14,28,20.80
2013,06,15,14,29,20.80
2013,06,15,14,30,20.90
2013,06,15,14,31,20.90
2013,06,15,14,32,21.00
2013,06,15,14,33,21.10
2013,06,15,14,34,21.10
2013,06,15,14,35,21.10
2013,06,15,14,36,21.10
2013,06,15,14,37,21.10
2013,06,15,14,38,21.00
2013,06,15,14,39,20.90
2013,06,15,14,40,20.90
2013,06,15,14,41,20.90
2013,06,15,14,42,20.90
2013,06,15,14,43,20.90
2013,06,15,14,44,20.80
2013,06,15,14,45,20.60
2013,06,15,14,46,20.50
2013,06,15,14,47,20.40
2013,06,15,14,48,20.40
2013,06,15,14,49,20.60
2013,06,15,14,50,20.60
2013,06,15,14,51,20.60
2013,06,15,14,52,20.70
2013,06,15,14,53,20.80
2013,06,15,14,54,21.00
2013,06,15,14,55,21.10
2013,06,15,14,56,21.30
2013,06,15,14,57,21.30
2013,06,15,14,58,21.30
2013,06,15,14,59,21.30
2013,06,15,15,00,21.20
2013,06,15,15,01,21.00
2013,06,15,15,02,20.90
2013,06,15,15,03,20.90
2013,06,15,15,04,20.90
2013,06,15,15,05,20.90
2013,06,15,15,06,20.90
2013,06,15,15,07,20.90
2013,06,15,15,08,20.80
2013,06,15,15,09,20.80
2013,06,15,15,10,20.80
2013,06,15,15,11,20.80
2013,06,15,15,12,20.90
2013,06,15,15,13,20.90
2013,06,15,15,14,20.90
2013,06,15,15,15,21.00
2013,06,15,15,16,20.90
2013,06,15,15,17,20.80
2013,06,15,15,18,20.70
2013,06,15,15,19,20.60
2013,06,15,15,20,20.60
2013,06,15,15,21,20.60
2013,06,15,15,22,20.70
2013,06,15,15,23,20.70
2013,06,15,15,24,20.70
2013,06,15,15,25,20.60
2013,06,15,15,26,20.50
2013,06,15,15,27,20.40
2013,06,15,15,28,20.30
2013,06,15,15,29,20.30
2013,06,15,15,30,20.20
2013,06,15,15,31,20.20
2013,06,15,15,32,20.20
2013,06,15,15,33,20.20
2013,06,15,15,34,20.20
2013,06,15,15,35,20.20
2013,06,15,15,36,20.20
2013,06,15,15,37,20.20
2013,06,15,15,38,20.20
2013,06,15,15,39,20.20
2013,06,15,15,40,20.30
2013,06,15,15,41,20.20
2013,06,15,15,42,20.20
2013,06,15,15,43,20.20
2013,06,15,15,44,20.10
2013,06,15,15,45,20.00
2013,06,15,15,46,19.90
2013,06,15,15,47,19.90
2013,06,15,15,48,19.90
2013,06,15,15,49,19.90
2013,06,15,15,50,19.90
2013,06,15,15,51,19.90
2013,06,15,15,52,19.90
2013,06,15,15,53,19.90
2013,06,15,15,54,19.80
2013,06,15,15,55,19.80
2013,06,15,15,56,19.80
2013,06,15,15,57,19.70
2013,06,15,15,58,19.60
2013,06,15,15,59,19.60
2013,06,15,16,00,19.60
2013,06,15,16,01,19.70
2013,06,15,16,02,19.70
2013,06,15,16,03,19.80
2013,06,15,16,04,19.70
2013,06,15,16,05,19.80
2013,06,15,16,06,19.80
2013,06,15,16,07,19.80
2013,06,15,16,08,19.80
2013,06,15,16,09,19.70
2013,06,15,16,10,19.70
2013,06,15,16,11,19.70
2013,06,15,16,12,19.70
2013,06,15,16,13,19.70
2013,06,15,16,14,19.70
2013,06,15,16,15,19.70
2013,06,15,16,16,19.70
2013,06,15,16,17,19.70
2013,06,15,16,18,19.60
2013,06,15,16,19,19.60
2013,06,15,16,20,19.70
2013,06,15,16,21,19.70
2013,06,15,16,22,19.70
2013,06,15,16,23,19.80
2013,06,15,16,24,19.80
2013,06,15,16,25,19.90
2013,06,15,16,26,19.90
2013,06,15,16,27,19.90
2013,06,15,16,28,19.80
2013,06,15,16,29,19.60
2013,06,15,16,30,19.50
2013,06,15,16,31,19.50
2013,06,15,16,32,19.50
2013,06,15,16,33,19.50
2013,06,15,16,34,19.40
2013,06,15,16,35,19.40
2013,06,15,16,36,19.30
2013,06,15,16,37,19.30
2013,06,15,16,38,19.30
2013,06,15,16,39,19.30
2013,06,15,16,40,19.20
2013,06,15,16,41,19.20
2013,06,15,16,42,19.20
2013,06,15,16,43,19.20
2013,06,15,16,44,19.30
2013,06,15,16,45,19.30
2013,06,15,16,46,19.40
2013,06,15,16,47,19.40
2013,06,15,16,48,19.40
2013,06,15,16,49,19.40
2013,06,15,16,50,19.40
2013,06,15,16,51,19.50
2013,06,15,16,52,19.50
2013,06,15,16,53,19.50
2013,06,15,16,54,19.50
2013,06,15,16,55,19.50
2013,06,15,16,56,19.50
2013,06,15,16,57,19.50
2013,06,15,16,58,19.50
2013,06,15,16,59,19.50
2013,06,15,17,00,19.50
2013,06,15,17,01,19.60
2013,06,15,17,02,19.60
2013,06,15,17,03,19.60
2013,06,15,17,04,19.70
2013,06,15,17,05,19.70
2013,06,15,17,06,19.80
2013,06,15,17,07,19.80
2013,06,15,17,08,19.70
2013,06,15,17,09,19.80
2013,06,15,17,10,19.80
2013,06,15,17,11,19.80
2013,06,15,17,12,19.90
2013,06,15,17,13,19.90
2013,06,15,17,14,20.00
2013,06,15,17,15,20.10
2013,06,15,17,16,20.20
2013,06,15,17,17,20.20
2013,06,15,17,18,20.20
2013,06,15,17,19,20.20
2013,06,15,17,20,20.20
2013,06,15,17,21,20.20
2013,06,15,17,22,20.30
2013,06,15,17,23,20.30
2013,06,15,17,24,20.30
2013,06,15,17,25,20.30
2013,06,15,17,26,20.30
2013,06,15,17,27,20.30
2013,06,15,17,28,20.30
2013,06,15,17,29,20.30
2013,06,15,17,30,20.40
2013,06,15,17,31,20.40
2013,06,15,17,32,20.40